CW1675 Weather Reports


Display with metric or nautical units.
time (UTC)temp
F
wind
direction
speed
MPH
gust
MPH
rain 1hr
in
rain 24hr
in
rain mn
in
humidity
%
barometer
mb
20260508221314 44 126 0.0 0.0 0.00 0.00 0.00 90 1019.2
20260508215814 44 126 0.0 0.0 0.00 0.00 0.00 90 1019.1
20260508214314 45 126 0.0 0.0 0.00 0.00 0.00 90 1019.1
20260508213314 45 126 0.0 0.0 0.00 0.00 0.00 89 1019.3
20260508212315 46 126 0.0 0.0 0.00 0.00 0.00 88 1019.2
20260508211313 46 126 0.0 1.0 0.00 0.00 0.00 86 1019.2
20260508210814 47 126 0.0 0.0 0.00 0.00 0.00 87 1019.1
20260508205814 47 126 0.0 0.0 0.00 0.00 0.00 88 1019.1
20260508205314 48 126 0.0 0.0 0.00 0.00 0.00 87 1019.1
20260508204314 48 126 0.0 0.0 0.00 0.00 0.00 87 1019.1
20260508202814 48 126 0.0 0.0 0.00 0.00 0.00 86 1019.0
20260508202314 49 126 0.0 0.0 0.00 0.00 0.00 86 1019.0
20260508201314 49 126 0.0 0.0 0.00 0.00 0.00 84 1019.0
20260508195814 50 126 0.0 0.0 0.00 0.00 0.00 82 1018.9
20260508195314 50 126 0.0 0.0 0.00 0.00 0.00 81 1018.9
20260508193314 52 126 0.0 0.0 0.00 0.00 0.00 76 1018.7
20260508192814 53 126 0.0 0.0 0.00 0.00 0.00 75 1018.7
20260508191817 54 126 0.0 1.0 0.00 0.00 0.00 73 1018.4
20260508191314 55 126 0.0 1.0 0.00 0.00 0.00 72 1018.4
20260508185813 57 126 0.0 2.0 0.00 0.00 0.00 67 1018.2
20260508185314 58 126 0.0 3.0 0.00 0.00 0.00 64 1017.9
20260508184814 58 126 0.0 2.0 0.00 0.00 0.00 62 1017.9
20260508184314 59 136 0.0 2.0 0.00 0.00 0.00 62 1017.9
20260508183814 60 51 0.0 2.0 0.00 0.00 0.00 60 1017.8
20260508183314 61 52 0.0 3.0 0.00 0.00 0.00 59 1017.8
20260508182314 62 49 0.0 2.0 0.00 0.00 0.00 55 1017.7
20260508181814 62 49 2.0 2.0 0.00 0.00 0.00 53 1017.7
20260508181314 62 38 2.0 1.0 0.00 0.00 0.00 51 1017.7
20260508180814 63 38 2.0 6.0 0.00 0.00 0.00 50 1017.6
20260508180313 63 55 2.0 6.0 0.00 0.00 0.00 48 1017.6
20260508174814 64 22 2.0 7.0 0.00 0.00 0.00 48 1017.4
20260508173314 64 50 1.0 3.0 0.00 0.00 0.00 48 1017.4
20260508172814 64 61 2.0 5.0 0.00 0.00 0.00 48 1017.4
20260508172314 63 29 2.0 5.0 0.00 0.00 0.00 49 1017.3
20260508171814 63 81 2.0 5.0 0.00 0.00 0.00 47 1017.3
20260508171314 63 41 2.0 6.0 0.00 0.00 0.00 46 1017.3
20260508170814 64 69 3.0 9.0 0.00 0.00 0.00 46 1017.3
20260508170314 64 82 3.0 7.0 0.00 0.00 0.00 46 1017.3
20260508165814 64 77 3.0 9.0 0.00 0.00 0.00 46 1017.3
20260508165313 64 66 2.0 7.0 0.00 0.00 0.00 46 1017.2
20260508164814 64 45 3.0 6.0 0.00 0.00 0.00 47 1017.2
20260508163314 64 10 2.0 8.0 0.00 0.00 0.00 48 1017.2
20260508161814 64 84 2.0 6.0 0.00 0.00 0.00 46 1017.2
20260508160814 64 73 2.0 7.0 0.00 0.00 0.00 47 1017.3
20260508153817 64 8 2.0 7.0 0.00 0.00 0.00 48 1017.5
20260508153317 64 45 2.0 7.0 0.00 0.00 0.00 48 1017.5
20260508152814 63 134 2.0 5.0 0.00 0.00 0.00 50 1017.5
20260508152313 63 51 2.0 6.0 0.00 0.00 0.00 50 1017.6
20260508150814 63 14 2.0 6.0 0.00 0.00 0.00 49 1017.7
20260508150313 63 64 2.0 6.0 0.00 0.00 0.00 49 1017.7
20260508144313 63 27 2.0 13.0 0.00 0.00 0.00 50 1017.7
20260508143813 63 47 3.0 5.0 0.00 0.00 0.00 52 1017.8
20260508142814 63 52 3.0 9.0 0.00 0.00 0.00 51 1017.8
20260508140814 63 96 2.0 6.0 0.00 0.00 0.00 51 1018.1
20260508135314 63 59 2.0 5.0 0.00 0.00 0.00 51 1018.1
20260508133314 62 100 2.0 5.0 0.00 0.00 0.00 53 1018.1
20260508132313 62 137 2.0 6.0 0.00 0.00 0.00 53 1018.1
20260508131815 62 99 2.0 6.0 0.00 0.00 0.00 53 1018.1
20260508125313 61 144 2.0 5.0 0.00 0.00 0.00 55 1018.2
20260508124314 61 71 1.0 7.0 0.00 0.00 0.00 55 1018.2
20260508123814 61 81 1.0 7.0 0.00 0.00 0.00 56 1018.2
20260508123313 61 297 1.0 0.0 0.00 0.00 0.00 56 1018.2
20260508122314 60 127 0.0 2.0 0.00 0.00 0.00 60 1018.2
20260508121815 60 129 1.0 2.0 0.00 0.00 0.00 59 1018.2
20260508115314 61 131 1.0 5.0 0.00 0.00 0.00 54 1018.2
20260508114814 61 60 2.0 5.0 0.00 0.00 0.00 58 1018.2
20260508114314 61 36 2.0 2.0 0.00 0.00 0.00 59 1018.2
20260508113314 60 60 2.0 5.0 0.00 0.00 0.00 59 1018.2
20260508112814 61 87 2.0 6.0 0.00 0.00 0.00 59 1018.2
20260508111813 60 47 2.0 6.0 0.00 0.00 0.00 60 1018.3
20260508110815 60 90 2.0 3.0 0.00 0.00 0.00 63 1018.2
20260508104813 60 329 0.0 5.0 0.00 0.00 0.00 63 1018.2
20260508104314 60 71 0.0 6.0 0.00 0.00 0.00 64 1018.2
20260508103814 60 66 0.0 3.0 0.00 0.00 0.00 65 1018.3
20260508102814 60 19 0.0 2.0 0.00 0.00 0.00 64 1018.3
20260508102314 60 320 0.0 3.0 0.00 0.00 0.00 64 1018.3
20260508100814 60 312 0.0 6.0 0.00 0.00 0.00 62 1018.4
20260508095813 60 73 1.0 2.0 0.00 0.00 0.00 62 1018.4
20260508095313 60 80 1.0 2.0 0.00 0.00 0.00 62 1018.4
20260508094814 59 14 2.0 5.0 0.00 0.00 0.00 61 1018.4
20260508094313 59 307 2.0 5.0 0.00 0.00 0.00 63 1018.4
20260508093814 59 307 1.0 5.0 0.00 0.00 0.00 62 1018.3
20260508092814 59 307 2.0 5.0 0.00 0.00 0.00 62 1018.3
20260508092314 59 314 2.0 3.0 0.00 0.00 0.00 62 1018.3
20260508091813 59 314 2.0 3.0 0.00 0.00 0.00 64 1018.3
20260508091314 58 314 2.0 5.0 0.00 0.00 0.00 66 1018.3
20260508090814 58 322 2.0 5.0 0.00 0.00 0.00 67 1018.3
20260508085314 58 318 2.0 5.0 0.00 0.00 0.00 72 1018.3
20260508084814 57 308 2.0 5.0 0.00 0.00 0.00 72 1018.3
20260508083813 57 303 2.0 5.0 0.00 0.00 0.00 75 1018.3
20260508082814 56 207 2.0 3.0 0.00 0.00 0.00 82 1018.3
20260508082314 55 207 2.0 5.0 0.00 0.00 0.00 83 1018.2
20260508081814 55 207 0.0 5.0 0.00 0.00 0.00 83 1018.2
20260508081313 55 161 0.0 5.0 0.00 0.00 0.00 84 1018.2
20260508074813 53 184 1.0 2.0 0.00 0.00 0.00 90 1018.3
20260508073818 52 183 0.0 5.0 0.00 0.00 0.00 91 1018.3
20260508073322 52 185 0.0 2.0 0.00 0.00 0.00 92 1018.3
20260508072814 52 17 0.0 0.0 0.00 0.00 0.00 93 1018.3
20260508071813 51 309 0.0 2.0 0.00 0.00 0.00 93 1018.3
20260508071313 51 307 0.0 0.0 0.00 0.00 0.00 93 1018.3
20260508061313 49 358 0.0 0.0 0.00 0.00 0.00 97 1017.8
20260508060814 49 358 0.0 1.0 0.00 0.00 0.00 97 1017.8
20260508060313 49 358 0.0 2.0 0.00 0.00 0.00 98 1017.8
20260508055324 48 135 0.0 2.0 0.00 0.00 0.00 98 1017.8
20260508054813 48 135 0.0 0.0 0.00 0.00 0.00 98 1017.8
20260508053814 48 135 0.0 0.0 0.00 0.00 0.00 98 1017.8
20260508052813 48 347 0.0 3.0 0.00 0.00 0.00 98 1017.8
20260508051813 47 109 0.0 2.0 0.00 0.00 0.00 98 1017.7
20260508051313 47 113 0.0 2.0 0.00 0.00 0.00 98 1017.7
20260508050314 47 113 0.0 1.0 0.00 0.00 0.00 98 1017.6
20260508045813 47 113 0.0 2.0 0.00 0.00 0.00 98 1017.6
20260508044813 47 115 0.0 2.0 0.00 0.00 0.00 98 1017.6
20260508043812 47 115 0.0 0.0 0.00 0.00 0.00 97 1017.5
20260508041313 47 114 0.0 1.0 0.00 0.00 0.00 97 1017.4
20260508040813 47 114 0.0 0.0 0.00 0.00 0.00 97 1017.4
20260508040313 47 114 0.0 2.0 0.00 0.00 0.00 97 1017.4
20260508034813 47 114 0.0 0.0 0.00 0.00 0.00 97 1017.4
20260508032313 47 114 0.0 0.0 0.00 0.00 0.00 97 1017.4
20260508031813 47 114 0.0 0.0 0.00 0.00 0.00 97 1017.4
20260508031313 47 114 0.0 2.0 0.00 0.00 0.00 97 1017.4
20260508030812 47 42 0.0 0.0 0.00 0.00 0.00 97 1017.4
20260508030313 47 42 0.0 0.0 0.00 0.00 0.00 97 1017.4
20260508025813 47 42 0.0 0.0 0.00 0.00 0.00 97 1017.4
20260508024313 47 42 0.0 0.0 0.00 0.00 0.00 97 1017.5
20260508022814 46 42 0.0 0.0 0.00 0.00 0.00 97 1017.5
20260508021313 46 42 0.0 0.0 0.00 0.00 0.00 97 1017.4
20260508013314 46 42 0.0 0.0 0.00 0.00 0.00 96 1017.4
20260508012312 46 42 0.0 0.0 0.00 0.00 0.00 96 1017.4
20260508010814 46 42 0.0 2.0 0.00 0.00 0.00 96 1017.3
20260508010313 47 42 0.0 2.0 0.00 0.00 0.00 96 1017.3
20260508005812 47 42 1.0 0.0 0.00 0.00 0.00 96 1017.3
20260508004812 47 42 0.0 2.0 0.00 0.00 0.00 96 1017.4
20260508003814 47 42 0.0 0.0 0.00 0.00 0.00 96 1017.5
20260508002313 47 42 1.0 3.0 0.00 0.00 0.00 95 1017.5
20260508001313 47 42 1.0 3.0 0.00 0.00 0.00 95 1017.5
20260507235812 47 42 0.0 2.0 0.00 0.00 0.00 95 1017.4
20260507233822 47 42 0.0 2.0 0.00 0.00 0.00 95 1017.7
20260507232813 48 42 0.0 0.0 0.00 0.00 0.00 95 1017.7
20260507222814 49 42 0.0 2.0 0.00 0.00 0.00 94 1017.8